Weather History for Cleveland Burke, OH

Change the Weather History Date:

Thursday, June 27, 2013

  Actual Average Record
Temperature  
Mean Temperature 72 °F -  
Max Temperature 75 °F 78 °F 93 °F (2005)
Min Temperature 69 °F 64 °F 60 °F (2004)
Cooling Degree Days 7    
Growing Degree Days 22 (Base 50)    
Moisture  
Dew Point 68 °F    
Average Humidity 89    
Maximum Humidity 100    
Minimum Humidity 79    
Precipitation  
Precipitation 0.25 in - - ()
Sea Level Pressure  
Sea Level Pressure 29.72 in    
Wind  
Wind Speed 5 mph (NNE)    
Max Wind Speed 13 mph    
Max Gust Speed -    
Visibility 9 miles    
Events Rain    
Averages and records for this station are not official NWS values.
T = Trace of Precipitation, MM = Missing Value Source: NWS Daily Summary

Daily Weather History Graph

Daily Weather History Graph

Search for Another Location

Airport:

Trip Planner

Search our weather history database for the weather conditions in past years. The results will help you decide how hot, cold, wet, or windy it might be!

Date:

Astronomy

Jun. 27, 2013 Rise Set
Actual Time 5:54 AM EDT 9:04 PM EDT
Civil Twilight 5:20 AM EDT 9:38 PM EDT
Nautical Twilight 4:37 AM EDT 10:22 PM EDT
Astronomical Twilight 3:45 AM EDT 11:14 PM EDT
Moon 11:56 PM EDT (6/27) 10:58 AM EDT (6/27)
Length of Visible Light 16h 17m
Length of Day
15h 09m
Waning Gibbous, 76% of the Moon is Illuminated
Jun 27
Waning Gibbous
Jun 30
Last Quarter
Jul 8
New
Jul 15
First Quarter
Jul 22
Full

Hourly Weather History & Observations

Time (EDT) Temp. Dew Point Humidity Pressure Visibility Wind Dir Wind Speed Gust Speed Precip Events Conditions
12:53 AM 72.0 °F 70.0 °F 93% 29.75 in 10.0 mi SE 5.8 mph - 0.04 in Rain Rain
1:53 AM 73.0 °F 69.1 °F 87% 29.75 in 10.0 mi SSW 6.9 mph - 0.00 in Rain Rain
2:53 AM 71.1 °F 68.0 °F 90% 29.75 in 7.0 mi SSW 6.9 mph - 0.03 in Rain Rain
3:32 AM 71.6 °F 68.0 °F 88% 29.76 in 4.0 mi SW 4.6 mph - 0.06 in Rain Rain
3:53 AM 71.1 °F 68.0 °F 90% 29.74 in 6.0 mi Calm Calm - 0.08 in Rain Rain
4:06 AM 69.8 °F 69.8 °F 100% 29.75 in 6.0 mi South 5.8 mph - 0.01 in Rain Rain
4:53 AM 70.0 °F 68.0 °F 93% 29.74 in 8.0 mi South 6.9 mph - 0.03 in Rain Rain
5:06 AM 69.8 °F 68.0 °F 94% 29.75 in 9.0 mi SSW 4.6 mph - 0.01 in Rain Rain
5:39 AM 69.8 °F 66.2 °F 88% 29.75 in 9.0 mi WSW 4.6 mph - 0.02 in Rain Rain
5:53 AM 69.1 °F 66.9 °F 93% 29.74 in 8.0 mi SW 3.5 mph - 0.02 in Rain Rain
6:00 AM 69.8 °F 68.0 °F 94% 29.75 in 7.0 mi WSW 3.5 mph - 0.01 in Rain Rain
6:53 AM 69.1 °F 68.0 °F 96% 29.73 in 9.0 mi Calm Calm - 0.02 in Rain Rain
7:11 AM 69.8 °F 68.0 °F 94% 29.74 in 7.0 mi Calm Calm - 0.00 in Rain Rain
7:53 AM 69.1 °F 68.0 °F 96% 29.73 in 7.0 mi Calm Calm - 0.02 in Rain Rain
8:24 AM 69.8 °F 68.0 °F 94% 29.74 in 10.0 mi Calm Calm - 0.00 in Rain Rain
8:35 AM 69.8 °F 68.0 °F 94% 29.74 in 10.0 mi Calm Calm - 0.00 in Rain Rain
8:53 AM 71.1 °F 68.0 °F 90% 29.73 in 10.0 mi Calm Calm - 0.00 in Rain Rain
9:22 AM 71.6 °F 68.0 °F 88% 29.74 in 9.0 mi Calm Calm - 0.01 in Rain Rain
9:53 AM 70.0 °F 68.0 °F 93% 29.73 in 10.0 mi NW 4.6 mph - 0.01 in Rain Rain
10:03 AM 71.6 °F 68.0 °F 88% 29.74 in 10.0 mi North 3.5 mph - 0.00 in Rain Rain
10:53 AM 72.0 °F 68.0 °F 87% 29.73 in 10.0 mi NNW 4.6 mph - 0.00 in Rain Rain
11:41 AM 73.4 °F 69.8 °F 88% 29.74 in 10.0 mi NNE 4.6 mph - 0.00 in Rain Rain
11:50 AM 73.4 °F 69.8 °F 88% 29.74 in 10.0 mi NNE 6.9 mph - 0.00 in Rain Rain
11:53 AM 73.0 °F 70.0 °F 90% 29.73 in 10.0 mi NE 4.6 mph - 0.00 in Rain Rain
12:00 PM 73.4 °F 69.8 °F 88% 29.74 in 10.0 mi NE 5.8 mph - 0.00 in Rain Rain
12:09 PM 73.4 °F 68.0 °F 83% 29.74 in 10.0 mi NE 6.9 mph - 0.00 in   Overcast
12:25 PM 73.4 °F 68.0 °F 83% 29.73 in 10.0 mi NNE 10.4 mph - 0.00 in   Overcast
12:36 PM 73.4 °F 68.0 °F 83% 29.73 in 10.0 mi NE 10.4 mph - 0.00 in   Overcast
12:53 PM 72.0 °F 68.0 °F 87% 29.73 in 10.0 mi NNE 12.7 mph - 0.00 in   Overcast
1:53 PM 73.9 °F 69.1 °F 85% 29.72 in 10.0 mi North 9.2 mph - N/A   Mostly Cloudy
2:53 PM 73.0 °F 68.0 °F 84% 29.70 in 10.0 mi North 8.1 mph - N/A   Mostly Cloudy
3:53 PM 75.0 °F 69.1 °F 82% 29.70 in 10.0 mi NW 5.8 mph - N/A   Scattered Clouds
4:53 PM 75.0 °F 69.1 °F 82% 29.68 in 10.0 mi NNW 6.9 mph - N/A   Scattered Clouds
5:53 PM 75.0 °F 68.0 °F 79% 29.66 in 10.0 mi NNE 3.5 mph - N/A   Scattered Clouds
6:53 PM 73.9 °F 68.0 °F 82% 29.69 in 10.0 mi NNW 6.9 mph - N/A   Mostly Cloudy
7:53 PM 72.0 °F 68.0 °F 87% 29.70 in 10.0 mi NNE 6.9 mph - N/A   Overcast
8:45 PM 71.6 °F 68.0 °F 88% 29.69 in 10.0 mi NE 9.2 mph - N/A   Mostly Cloudy
8:53 PM 71.1 °F 68.0 °F 90% 29.67 in 10.0 mi NE 6.9 mph - N/A   Mostly Cloudy
9:30 PM 69.8 °F 66.2 °F 88% 29.67 in 10.0 mi East 3.5 mph - N/A   Scattered Clouds
9:53 PM 70.0 °F 66.9 °F 90% 29.66 in 10.0 mi SSE 5.8 mph - 0.00 in Rain Light Rain
10:53 PM 71.1 °F 66.0 °F 84% 29.65 in 10.0 mi Calm Calm - 0.00 in   Mostly Cloudy
11:53 PM 69.1 °F 66.0 °F 90% 29.63 in 7.0 mi Calm Calm - N/A   Clear